DW4707 Campi Bisenzio - Firenze IT current weather conditions

sailwx.info

Last reported at 2015-Sep-12 14:27 UTC.
Time now 2016-Feb-07 21:46 UTC

Location: N 43°50' E 011°08'.
View on Google Maps.

See reports from other nearby stations

  
Tides and Currents Weather Stations Pressure Air Temp Water Temp Dewpoint Dewpoint Depression Visibility Wind Speed Wind Dir Waves Ship Positions
date/time (UTC)wind fromknots sea level pressurealtimeterstation pressurevisibilityair tempwater tempwave heightnotes
2016-Feb-07 20:45 204 1 gusting 1 12.8
2016-Feb-07 20:41 045 12.8
2016-Feb-07 20:36 12.8
2016-Feb-07 20:31 348 12.8
2016-Feb-07 20:26 022 0 gusting 1 12.8
2016-Feb-07 20:20 12.8
2016-Feb-07 20:15 183 12.8
2016-Feb-07 20:10 022 12.8
2016-Feb-07 20:06 045 0 gusting 1 12.8
2016-Feb-07 20:00 277 0 gusting 2 12.8
2016-Feb-07 19:55 045 2 gusting 2 12.8
2016-Feb-07 19:50 022 12.8
2016-Feb-07 19:46 043 0 gusting 0 12.8
2016-Feb-07 19:40 090 0 gusting 0 12.8
2016-Feb-07 19:35 022 2 gusting 2 12.8
2016-Feb-07 19:30 033 12.8
2016-Feb-07 19:25 022 12.8
2016-Feb-07 19:21 110 12.8
2016-Feb-07 19:15 058 12.8
2016-Feb-07 19:10 338 0 gusting 1 12.8
2016-Feb-07 19:05 068 12.8
2016-Feb-07 19:01 022 12.8
2016-Feb-07 18:55 022 0 gusting 2 12.8
2016-Feb-07 18:50 045 12.8
2016-Feb-07 18:46 202 12.2
2016-Feb-07 18:40 022 2 gusting 5 12.2
2016-Feb-07 18:36 135 12.2
2016-Feb-07 18:31 045 12.2
2016-Feb-07 18:25 12.2
2016-Feb-07 18:21 342 1 gusting 2 12.2
2016-Feb-07 18:16 12.2
2016-Feb-07 18:10 12.8
2016-Feb-07 18:06 070 12.8
2016-Feb-07 18:00 067 12.8
2016-Feb-07 17:56 068 1 gusting 1 12.8
2016-Feb-07 17:50 132 12.8
2016-Feb-07 17:45 017 1 gusting 1 12.8
2016-Feb-07 17:41 202 0 gusting 0 12.8
2016-Feb-07 17:35 070 12.8
2016-Feb-07 17:30 358 12.8
2016-Feb-07 17:25 12.8
2016-Feb-07 17:20 112 12.8
2016-Feb-07 17:15 090 0 gusting 1 12.8
2016-Feb-07 17:10 202 12.8
2016-Feb-07 17:06 022 12.8
2016-Feb-07 17:00 135 12.8
2016-Feb-07 16:56 022 12.8
2016-Feb-07 16:50 12.8
2016-Feb-07 16:45 062 12.8
2016-Feb-07 16:40 112 12.8
2016-Feb-07 16:35 068 12.8
2016-Feb-07 16:30 12.8
2016-Feb-07 16:25 12.8
2016-Feb-07 16:20 12.8
2016-Feb-07 16:15 063 12.8
2016-Feb-07 16:10 022 1 gusting 2 12.8
2016-Feb-07 16:05 022 5 gusting 6 12.8
2016-Feb-07 16:00 338 2 gusting 4 12.8
2016-Feb-07 15:55 338 12.8
2016-Feb-07 15:51 12.8
2016-Feb-07 15:45 310 12.2
2016-Feb-07 15:41 292 12.2
2016-Feb-07 15:36 090 11.7
2016-Feb-07 15:30 006 11.1
2016-Feb-07 15:25 11.1
2016-Feb-07 15:21 11.1
2016-Feb-07 15:15 11.1
2016-Feb-07 15:11 022 10.6
2016-Feb-07 15:05 022 11.1
2016-Feb-07 15:00 292 11.1
2016-Feb-07 14:55 180 0 gusting 0 11.1
2016-Feb-07 14:50 338 11.1
2016-Feb-07 14:45 202 10.6
2016-Feb-07 14:40 158 10.6
2016-Feb-07 14:35 015 10.6
2016-Feb-07 14:30 041 10.6
2016-Feb-07 14:25 135 10.6
2016-Feb-07 14:20 068 10.6
2016-Feb-07 14:15 068 10.6
2016-Feb-07 14:11 068 10.6
2016-Feb-07 14:05 068 10.6
2016-Feb-07 14:00 068 10.6
2016-Feb-07 13:55 090 10.6
2016-Feb-07 13:50 090 10.6
2016-Feb-07 13:46 045 10.0
2016-Feb-07 13:40 045 10.0
2016-Feb-07 13:35 068 10.0
2016-Feb-07 13:30 090 10.6
2016-Feb-07 13:26 135 10.6
2016-Feb-07 13:21 064 10.6
2016-Feb-07 13:15 045 10.6
2016-Feb-07 13:11 135 10.6
2016-Feb-07 13:05 045 10.6
2016-Feb-07 13:00 045 10.6
2016-Feb-07 12:56 045 10.6
2016-Feb-07 12:50 081 10.6
2016-Feb-07 12:45 315 10.6
2016-Feb-07 12:41 338 10.6
2016-Feb-07 12:35 338 10.6
2016-Feb-07 12:30 355 10.6
2016-Feb-07 12:25 338 11.1
2016-Feb-07 12:20 338 11.1
2016-Feb-07 12:16 318 11.7
2016-Feb-07 12:10 338 12.2
2016-Feb-07 12:05 035 12.2
2016-Feb-07 12:00 135 12.8
2016-Feb-07 11:56 202 12.8
2016-Feb-07 11:50 022 0 gusting 0 12.8
2016-Feb-07 11:45 041 0 gusting 2 12.8
2016-Feb-07 11:40 135 12.8
2016-Feb-07 11:36 202 12.2
2016-Feb-07 11:31 235 12.2
2016-Feb-07 11:25 090 12.2
2016-Feb-07 11:20 200 12.2
2016-Feb-07 11:15 12.2
2016-Feb-07 11:10 158 0 gusting 1 12.2
2016-Feb-07 11:05 353 1 gusting 2 12.2
2016-Feb-07 11:00 12.2
2016-Feb-07 10:55 022 12.2
2016-Feb-07 10:50 098 12.2
2016-Feb-07 10:45 022 1 gusting 1 12.2
2016-Feb-07 10:40 022 12.2
2016-Feb-07 10:36 12.2
2016-Feb-07 10:30 006 1 gusting 1 12.2
2016-Feb-07 10:26 338 1 gusting 1 12.2
2016-Feb-07 10:20 202 1 gusting 2 11.7
2016-Feb-07 10:16 098 11.7
2016-Feb-07 10:10 270 11.7
2016-Feb-07 10:05 143 1 gusting 1 11.7
2016-Feb-07 10:00 200 0 gusting 0 11.7
2016-Feb-07 09:55 050 5 gusting 6 11.7
2016-Feb-07 09:50 069 0 gusting 0 11.7
2016-Feb-07 09:45 003 2 gusting 4 11.7
2016-Feb-07 09:40 225 11.7
2016-Feb-07 09:35 052 0 gusting 2 11.7
2016-Feb-07 09:30 090 1 gusting 1 11.7
2016-Feb-07 09:25 248 11.7
2016-Feb-07 09:20 180 1 gusting 5 11.7
2016-Feb-07 09:15 225 4 gusting 5 11.7
2016-Feb-07 09:10 045 11.7
2016-Feb-07 09:05 180 2 gusting 2 11.7
2016-Feb-07 09:00 106 11.7
2016-Feb-07 08:56 292 11.1
2016-Feb-07 08:51 279 0 gusting 0 11.1
2016-Feb-07 08:45 069 11.1
2016-Feb-07 08:41 11.1
2016-Feb-07 08:35 026 0 gusting 0 11.1
2016-Feb-07 08:30 175 1 gusting 2 11.1
2016-Feb-07 08:25 202 0 gusting 4 11.1
2016-Feb-07 08:20 225 2 gusting 2 11.1
2016-Feb-07 08:15 020 0 gusting 2 11.1
2016-Feb-07 08:10 270 11.1
2016-Feb-07 08:05 262 1 gusting 1 11.1
2016-Feb-07 08:00 331 10.6
2016-Feb-07 07:56 202 5 gusting 5 10.6
2016-Feb-07 07:50 358 0 gusting 2 11.1
2016-Feb-07 07:45 338 1 gusting 2 11.1
2016-Feb-07 07:40 338 11.1
2016-Feb-07 07:35 128 11.1
2016-Feb-07 07:31 353 0 gusting 1 11.1
2016-Feb-07 07:25 180 11.1
2016-Feb-07 07:20 202 11.1
2016-Feb-07 07:15 11.1
2016-Feb-07 07:11 022 0 gusting 2 10.6
2016-Feb-07 07:05 181 11.1
2016-Feb-07 07:00 10.6
2016-Feb-07 06:55 045 2 gusting 4 10.6
2016-Feb-07 06:50 10.6
2016-Feb-07 06:45 112 10.6
2016-Feb-07 06:40 068 10.6
2016-Feb-07 06:35 027 10.6
2016-Feb-07 06:30 338 10.6
2016-Feb-07 06:25 022 10.6
2016-Feb-07 06:20 342 0 gusting 0 10.6
2016-Feb-07 06:15 282 10.6
2016-Feb-07 06:10 225 0 gusting 1 10.6
2016-Feb-07 06:05 045 10.6
2016-Feb-07 06:00 046 10.6
2016-Feb-07 05:56 030 10.6
2016-Feb-07 05:50 043 10.6
2016-Feb-07 05:46 034 10.6
2016-Feb-07 05:40 180 10.6
2016-Feb-07 05:35 197 10.6
2016-Feb-07 05:31 025 10.6
2016-Feb-07 05:25 180 0 gusting 1 10.6
2016-Feb-07 05:20 225 0 10.6
2016-Feb-07 05:15 224 0 gusting 1 10.6
2016-Feb-07 05:11 134 10.6
2016-Feb-07 05:05 116 0 gusting 1 10.6
2016-Feb-07 05:00 338 10.6
2016-Feb-07 04:56 338 0 gusting 1 10.6
2016-Feb-07 04:50 022 0 gusting 0 10.6
2016-Feb-07 04:46 022 10.6
2016-Feb-07 04:41 310 10.6
2016-Feb-07 04:35 045 10.6
2016-Feb-07 04:30 190 0 gusting 1 10.6
2016-Feb-07 04:25 022 10.6
2016-Feb-07 04:20 225 10.6
2016-Feb-07 04:16 068 10.6
2016-Feb-07 04:11 057 10.6
2016-Feb-07 04:05 045 10.6
2016-Feb-07 04:00 012 10.6
2016-Feb-07 03:55 158 0 gusting 0 10.6
2016-Feb-07 03:50 202 0 gusting 0 10.6
2016-Feb-07 03:45 180 10.6
2016-Feb-07 03:41 270 10.6
2016-Feb-07 03:35 022 1 10.6
2016-Feb-07 03:30 022 1 gusting 1 10.6
2016-Feb-07 03:26 315 1 gusting 1 10.6
2016-Feb-07 03:20 022 10.6
2016-Feb-07 03:16 315 10.6
2016-Feb-07 03:10 158 10.6
2016-Feb-07 03:05 028 10.6
2016-Feb-07 03:00 202 0 gusting 0 10.6
2016-Feb-07 02:56 158 10.6
2016-Feb-07 02:50 180 10.6
2016-Feb-07 02:45 10.6
2016-Feb-07 02:40 180 10.6
2016-Feb-07 02:35 180 10.6
2016-Feb-07 02:31 180 10.6
2016-Feb-07 02:25 202 10.6
2016-Feb-07 02:20 202 10.6
2016-Feb-07 02:16 202 10.6
2016-Feb-07 02:10 178 10.6
2016-Feb-07 02:06 202 10.6
2016-Feb-07 02:00 174 10.6
2016-Feb-07 01:56 158 10.6
2016-Feb-07 01:50 180 1 gusting 4 10.6
2016-Feb-07 01:46 194 10.6
2016-Feb-07 01:40 338 10.6
2016-Feb-07 01:36 202 10.6
2016-Feb-07 01:31 150 10.6
2016-Feb-07 01:25 163 10.6
2016-Feb-07 01:20 180 10.6
2016-Feb-07 01:15 077 10.6
2016-Feb-07 01:11 10.6
2016-Feb-07 01:06 202 10.6
2016-Feb-07 01:00 022 10.6
2016-Feb-07 00:55 045 10.6
2016-Feb-07 00:50 045 10.6
2016-Feb-07 00:46 045 11.1
2016-Feb-07 00:40 045 11.1
2016-Feb-07 00:35 045 11.1
2016-Feb-07 00:30 068 11.1
2016-Feb-07 00:25 045 11.1
2016-Feb-07 00:20 202 11.1
2016-Feb-07 00:16 022 11.1
2016-Feb-07 00:11 012 11.1
2016-Feb-07 00:05 11.1
2016-Feb-07 00:00 225 11.1
2016-Feb-06 23:55 022 11.1
2016-Feb-06 23:51 338 11.1
2016-Feb-06 23:46 11.1
2016-Feb-06 23:40 068 11.1
2016-Feb-06 23:36 270 11.1
2016-Feb-06 23:30 332 11.1
2016-Feb-06 23:25 338 11.1
2016-Feb-06 23:21 158 11.1
2016-Feb-06 23:15 313 11.1
2016-Feb-06 23:11 022 1 gusting 4 11.1
2016-Feb-06 23:06 090 11.1
2016-Feb-06 23:00 140 0 gusting 0 11.1
2016-Feb-06 22:56 135 11.1
2016-Feb-06 22:51 315 11.1
2016-Feb-06 22:45 180 11.1
2016-Feb-06 22:40 022 11.1
2016-Feb-06 22:36 11.1
2016-Feb-06 22:30 11.1
2016-Feb-06 22:26 023 10.6
2016-Feb-06 22:21 022 10.6
2016-Feb-06 22:16 072 10.6
2016-Feb-06 22:10 10.6
2016-Feb-06 22:05 022 10.6
2016-Feb-06 22:01 315 10.6
2016-Feb-06 21:55 292 10.6
2016-Feb-06 21:51 045 10.6
2016-Feb-06 21:46 215 10.6
2016-Feb-06 21:41 158 0 gusting 1 10.6
2016-Feb-06 21:35 248 10.6
2016-Feb-06 21:30 180 10.6
2016-Feb-06 21:25 022 10.6
2016-Feb-06 21:15 022 10.6
2016-Feb-06 21:11 022 10.6
2016-Feb-06 21:05 10.6
2016-Feb-06 21:00 010 10.0
2016-Feb-06 20:56 288 10.0
2016-Feb-06 20:51 10.0
2016-Feb-06 20:45 170 10.0
2016-Feb-06 20:41 225 9.4
2016-Feb-06 20:36 9.4
2016-Feb-06 20:31 9.4
2016-Feb-06 20:26 9.4
2016-Feb-06 20:20 10.0
2016-Feb-06 20:15 10.0
2016-Feb-06 20:11 10.0
2016-Feb-06 20:06 180 10.0
2016-Feb-06 20:01 180 10.0
2016-Feb-06 19:56 180 10.0
2016-Feb-06 19:51 180 10.6
2016-Feb-06 19:46 180 10.6
2016-Feb-06 19:41 022 10.6
2016-Feb-06 19:36 180 0 gusting 0 10.6
2016-Feb-06 19:31 202 10.6
2016-Feb-06 19:26 10.6
2016-Feb-06 19:21 022 10.6
2016-Feb-06 19:15 258 10.6
2016-Feb-06 19:11 202 10.6
2016-Feb-06 19:05 202 10.6
2016-Feb-06 19:01 202 10.6
2016-Feb-06 18:55 202 10.6
2016-Feb-06 18:51 202 10.6
2016-Feb-06 18:46 202 10.6
2016-Feb-06 18:41 202 10.6
2016-Feb-06 18:36 202 10.6
2016-Feb-06 18:31 180 10.6
2016-Feb-06 18:26 180 10.6
2016-Feb-06 18:21 180 10.6
2016-Feb-06 18:16 180 10.6
2016-Feb-06 18:11 180 10.6
2016-Feb-06 18:06 180 10.6
2016-Feb-06 18:00 184 10.6
2016-Feb-06 17:56 202 10.6
2016-Feb-06 17:51 202 10.6
2016-Feb-06 17:46 202 11.1
2016-Feb-06 17:41 202 11.1
2016-Feb-06 17:36 202 11.1
2016-Feb-06 17:31 202 11.1
2016-Feb-06 17:25 202 11.1
2016-Feb-06 17:20 202 11.1
2016-Feb-06 17:16 202 11.1
2016-Feb-06 17:11 202 11.1
2016-Feb-06 17:06 202 11.1
2016-Feb-06 17:00 202 11.1
2016-Feb-06 16:55 202 11.7
2016-Feb-06 16:51 202 11.7
2016-Feb-06 16:46 180 11.7
2016-Feb-06 16:41 180 11.7
2016-Feb-06 16:36 202 11.7
2016-Feb-06 16:30 202 11.7
2016-Feb-06 16:26 270 12.2
2016-Feb-06 16:21 12.2
2016-Feb-06 16:16 12.2
2016-Feb-06 16:11 12.2
2016-Feb-06 16:06 12.2
2016-Feb-06 16:01 12.2
2016-Feb-06 15:56 12.2
2016-Feb-06 15:50 12.8
2016-Feb-06 15:46 12.8
2016-Feb-06 15:41 12.8
2016-Feb-06 15:36 12.8
2016-Feb-06 15:30 12.8
2016-Feb-06 15:26 12.8
2016-Feb-06 15:21 12.8
2016-Feb-06 15:16 12.8
2016-Feb-06 15:10 13.3
2016-Feb-06 15:06 13.3
2016-Feb-06 15:01 13.3
2016-Feb-06 14:56 13.3
2016-Feb-06 14:51 13.3
2016-Feb-06 14:46 13.3
2016-Feb-06 14:41 13.3
2016-Feb-06 14:36 13.9
2016-Feb-06 14:31 022 13.9
2016-Feb-06 14:26 022 13.9
2016-Feb-06 14:21 022 13.9
2016-Feb-06 14:16 022 13.9
2016-Feb-06 14:11 045 13.9
2016-Feb-06 14:06 045 13.9
2016-Feb-06 14:01 031 13.9
2016-Feb-06 13:55 13.9
2016-Feb-06 13:51 068 13.9
2016-Feb-06 13:46 022 13.9
2016-Feb-06 13:41 022 13.9
2016-Feb-06 13:36 022 13.9
2016-Feb-06 13:31 086 13.9
2016-Feb-06 13:26 068 13.3
2016-Feb-06 13:20 045 13.3
2016-Feb-06 13:16 045 13.3
2016-Feb-06 13:11 068 13.3
2016-Feb-06 13:06 045 13.3
2016-Feb-06 13:01 148 13.3
2016-Feb-06 12:56 068 13.3
2016-Feb-06 12:51 022 13.3
2016-Feb-06 12:46 012 13.3
2016-Feb-06 12:41 13.3
2016-Feb-06 12:36 022 13.3
2016-Feb-06 12:31 104 13.3
2016-Feb-06 12:26 068 13.3
2016-Feb-06 12:21 090 13.3
2016-Feb-06 12:16 045 12.8
2016-Feb-06 12:11 045 13.3
2016-Feb-06 12:06 045 12.8
2016-Feb-06 12:01 045 13.3
2016-Feb-06 11:56 090 13.3
2016-Feb-06 11:51 022 12.8
2016-Feb-06 11:46 003 12.8
2016-Feb-06 11:41 12.2
2016-Feb-06 11:36 090 12.8
2016-Feb-06 11:31 138 12.2
2016-Feb-06 11:26 158 11.7
2016-Feb-06 11:21 11.7
2016-Feb-06 11:16 022 11.7
2016-Feb-06 11:11 045 11.7
2016-Feb-06 11:06 069 11.7
2016-Feb-06 11:01 031 11.7
2016-Feb-06 10:56 022 11.1
2016-Feb-06 10:51 022 11.1
2016-Feb-06 10:46 030 11.1
2016-Feb-06 10:41 089 10.6
2016-Feb-06 10:36 068 10.6
2016-Feb-06 10:31 022 10.0
2016-Feb-06 10:26 10.0
2016-Feb-06 10:21 045 9.4
2016-Feb-06 10:16 067 8.9
2016-Feb-06 10:11 045 8.3
2016-Feb-06 10:06 045 7.8
2016-Feb-06 10:01 013 7.8
2016-Feb-06 09:56 022 7.8
2016-Feb-06 09:51 045 7.8
2016-Feb-06 09:46 124 7.2
2016-Feb-06 09:41 068 6.7
2016-Feb-06 09:36 022 6.7
2016-Feb-06 09:31 030 6.7
2016-Feb-06 09:26 045 6.1
2016-Feb-06 09:21 6.1
2016-Feb-06 09:16 6.1
2016-Feb-06 09:11 6.1
2016-Feb-06 09:06 5.6
2016-Feb-06 09:01 5.6
2016-Feb-06 08:56 6.1
2016-Feb-06 08:51 338 6.1
2016-Feb-06 08:46 6.1
2016-Feb-06 08:41 022 6.1
2016-Feb-06 08:36 6.1
2016-Feb-06 08:31 012 6.1
2016-Feb-06 08:26 180 6.1
2016-Feb-06 08:21 6.1
2016-Feb-06 08:16 5.6
2016-Feb-06 08:11 112 5.6
2016-Feb-06 08:06 045 5.0
2016-Feb-06 08:01 045 5.0
2016-Feb-06 07:56 180 5.0
2016-Feb-06 07:51 180 4.4
2016-Feb-06 07:46 180 3.9
2016-Feb-06 07:41 180 3.9
2016-Feb-06 07:36 180 3.3
2016-Feb-06 07:31 180 3.3
2016-Feb-06 07:26 180 3.3
2016-Feb-06 07:21 180 2.8
2016-Feb-06 07:16 180 2.8
2016-Feb-06 07:11 180 2.2
2016-Feb-06 07:06 180 2.2
2016-Feb-06 07:01 180 2.2
2016-Feb-06 06:56 180 1.7
2016-Feb-06 06:51 180 2.2
2016-Feb-06 06:46 180 1.7
2016-Feb-06 06:41 180 1.7
2016-Feb-06 06:36 180 1.7
2016-Feb-06 06:31 180 1.7
2016-Feb-06 06:26 180 1.7
2016-Feb-06 06:21 180 1.7
2016-Feb-06 06:16 180 1.7
2016-Feb-06 06:11 180 2.2
2016-Feb-06 06:06 180 2.2
2016-Feb-06 06:01 180 2.2
2016-Feb-06 05:56 112 2.2
2016-Feb-06 05:51 045 2.2
2016-Feb-06 05:46 045 2.2
2016-Feb-06 05:41 2.2
2016-Feb-06 05:36 2.8
2016-Feb-06 05:31 2.2
2016-Feb-06 05:26 2.2
2016-Feb-06 05:21 2.8
2016-Feb-06 05:16 2.8
2016-Feb-06 05:11 2.8
2016-Feb-06 05:06 2.8
2016-Feb-06 05:01 2.8
2016-Feb-06 04:56 2.8
2016-Feb-06 04:51 2.8
2016-Feb-06 04:46 2.8
2016-Feb-06 04:41 2.8
2016-Feb-06 04:36 2.8
2016-Feb-06 04:31 2.8
2016-Feb-06 04:26 2.8
2016-Feb-06 04:21 2.8
2016-Feb-06 04:16 2.8
2016-Feb-06 04:11 2.8
2016-Feb-06 04:06 3.3
2016-Feb-06 04:01 3.3
2016-Feb-06 03:56 3.3
2016-Feb-06 03:51 2.8
2016-Feb-06 03:46 3.3
2016-Feb-06 03:41 3.3
2016-Feb-06 03:36 3.3
2016-Feb-06 03:31 3.3
2016-Feb-06 03:26 3.3
2016-Feb-06 03:21 3.3
2016-Feb-06 03:16 3.3
2016-Feb-06 03:11 3.3
2016-Feb-06 03:06 3.3
2016-Feb-06 03:01 3.3
2016-Feb-06 02:56 3.3
2016-Feb-06 02:51 3.3
2016-Feb-06 02:46 3.3
2016-Feb-06 02:41 3.3
2016-Feb-06 02:36 3.9
2016-Feb-06 02:31 3.9
2016-Feb-06 02:26 3.9
2016-Feb-06 02:21 022 3.9
2016-Feb-06 02:16 338 3.9
2016-Feb-06 02:11 202 3.9
2016-Feb-06 02:06 202 3.9
2016-Feb-06 02:01 202 3.9
2016-Feb-06 01:56 225 3.9
2016-Feb-06 01:51 225 3.9
2016-Feb-06 01:46 202 3.9
2016-Feb-06 01:41 225 3.9
2016-Feb-06 01:36 225 3.9
2016-Feb-06 01:31 180 3.9
2016-Feb-06 01:26 183 3.9
2016-Feb-06 01:21 180 3.9
2016-Feb-06 01:16 180 3.9
2016-Feb-06 01:11 202 4.4
2016-Feb-06 01:06 202 4.4
2016-Feb-06 01:01 202 3.9
2016-Feb-06 00:56 202 3.9
2016-Feb-06 00:51 202 3.9
2016-Feb-06 00:46 202 3.9
2016-Feb-06 00:41 202 4.4
2016-Feb-06 00:36 202 4.4
2016-Feb-06 00:31 202 4.4
2016-Feb-06 00:26 202 4.4
2016-Feb-06 00:21 202 4.4
2016-Feb-06 00:16 202 4.4
2016-Feb-06 00:11 202 4.4
2016-Feb-06 00:06 202 4.4
2016-Feb-06 00:01 202 4.4
2016-Feb-05 23:56 202 5.0
2016-Feb-05 23:51 202 5.0
2016-Feb-05 23:46 202 5.0
2016-Feb-05 23:41 202 5.0
2016-Feb-05 23:36 202 5.0
2016-Feb-05 23:31 202 5.0
2016-Feb-05 23:26 202 5.0
2016-Feb-05 23:21 202 5.0
2016-Feb-05 23:16 202 5.0
2016-Feb-05 23:11 202 5.0
2016-Feb-05 23:06 202 5.6
2016-Feb-05 23:01 202 5.6
2016-Feb-05 22:56 202 5.0
2016-Feb-05 22:51 202 5.6
2016-Feb-05 22:46 202 5.6
2016-Feb-05 22:41 202 5.0
2016-Feb-05 22:36 202 5.0
2016-Feb-05 22:31 202 5.6
2016-Feb-05 22:26 202 5.6
2016-Feb-05 22:21 202 5.6
2016-Feb-05 22:16 202 5.6
2016-Feb-05 22:11 202 5.6
2016-Feb-05 22:06 202 5.6
2016-Feb-05 22:01 202 5.6
2016-Feb-05 21:56 202 5.6
2016-Feb-05 21:51 202 6.1
2016-Feb-05 21:46 202 6.1
2016-Feb-05 21:41 202 6.1
2016-Feb-05 21:36 295 6.1
2016-Feb-05 21:31 6.1
2016-Feb-05 21:26 6.1
2016-Feb-05 21:21 6.1
2016-Feb-05 21:16 6.1
2016-Feb-05 21:11 6.7
2016-Feb-05 21:06 6.7
2016-Feb-05 21:01 6.7